Location: Colonia Mina de C?rbuni
(46.1667°N, 22.7167°E)
Time: 23:43:06
(UTC+00:00)

Transit 2A - All Passes

Search period start: 16 April 2024 00:00
Search period end: 26 April 2024 00:00
Orbit: 597 x 956 km, 66.7° (Epoch: 16 April)

Date Brightness Start Highest point End Pass type
(mag) Time Alt. Az. Time Alt. Az. Time Alt. Az.
16 Apr - 05:28:39 10° S 05:32:46 43° ESE 05:37:10 10° NE daylight
16 Apr - 07:12:13 10° WSW 07:16:03 27° NW 07:20:08 10° NNE daylight
16 Apr - 12:28:37 10° N 12:32:15 18° NE 12:36:06 10° ENE daylight
16 Apr - 14:10:48 10° NNW 14:16:13 73° NE 14:22:10 10° SE daylight
16 Apr - 15:54:51 10° WNW 15:58:57 21° WSW 16:03:16 10° SSW daylight
17 Apr - 04:54:05 10° S 04:57:49 28° ESE 05:01:45 10° NE daylight
17 Apr - 06:36:36 10° WSW 06:40:44 38° NW 06:45:11 10° NNE daylight
17 Apr - 08:24:31 10° NNW 08:25:22 10° NNW 08:26:13 10° NNW daylight
17 Apr - 11:53:51 10° N 11:56:46 15° NNE 11:59:49 10° ENE daylight
17 Apr - 13:35:45 10° NNW 13:41:02 53° NE 13:46:50 10° SE daylight
17 Apr - 15:19:13 10° NW 15:24:00 30° WSW 15:29:07 10° S daylight
18 Apr - 04:19:54 10° SSE 04:22:55 19° ESE 04:26:05 10° ENE daylight
18 Apr - 06:01:11 10° SW 06:05:30 54° NW 06:10:11 10° NNE daylight
18 Apr - 07:47:38 10° NW 07:49:48 13° NNW 07:52:02 10° N daylight
18 Apr - 11:19:16 10° N 11:21:14 12° NNE 11:23:14 10° NE daylight
18 Apr - 13:00:45 10° NNW 13:05:48 39° NE 13:11:18 10° ESE daylight
18 Apr - 14:43:48 10° NW 14:49:00 42° WSW 14:54:36 10° S daylight
19 Apr - 03:46:28 10° SE 03:48:06 12° ESE 03:49:44 10° E daylight
19 Apr - 05:25:56 10° SW 05:30:19 81° WNW 05:35:05 10° NNE daylight
19 Apr - 07:11:23 10° WNW 07:14:17 16° NNW 07:17:22 10° N daylight
19 Apr - 12:25:47 10° NNW 12:30:30 30° NE 12:35:35 10° ESE daylight
19 Apr - 14:08:31 10° NW 14:13:57 60° WSW 14:19:52 10° SSE daylight
20 Apr - 04:50:53 10° SSW 04:55:14 67° ESE 04:59:55 10° NE daylight
20 Apr - 06:35:22 10° W 06:38:51 21° NW 06:42:33 10° NNE daylight
20 Apr - 11:50:52 10° NNW 11:55:08 23° NE 11:59:41 10° E daylight
20 Apr - 13:33:20 10° NW 13:38:51 83° WSW 13:44:52 10° SSE daylight
20 Apr - 15:18:17 10° WNW 15:21:20 15° WSW 15:24:29 10° SW daylight
21 Apr - 04:16:04 10° S 04:20:12 43° ESE 04:24:39 10° NE daylight
21 Apr - 05:59:34 10° WSW 06:03:28 28° NW 06:07:38 10° NNE daylight
21 Apr - 11:16:01 10° N 11:19:43 18° NE 11:23:37 10° ENE daylight
21 Apr - 12:58:12 10° NNW 13:03:42 72° NE 13:09:42 10° SE daylight
21 Apr - 14:42:15 10° WNW 14:46:25 22° WSW 14:50:51 10° SSW daylight
22 Apr - 03:41:30 10° S 03:45:15 28° ESE 03:49:13 10° NE daylight
22 Apr - 05:23:58 10° WSW 05:28:08 38° NW 05:32:40 10° NNE daylight
22 Apr - 07:11:38 10° NW 07:12:47 11° NNW 07:13:56 10° N daylight
22 Apr - 10:41:14 10° N 10:44:13 15° NNE 10:47:19 10° ENE daylight
22 Apr - 12:23:09 10° NNW 12:28:31 53° NE 12:34:20 10° SE daylight
22 Apr - 14:06:37 10° NW 14:11:28 31° WSW 14:16:40 10° S daylight
23 Apr - 03:07:19 10° SSE 03:10:21 18° ESE 03:13:32 10° ENE daylight
23 Apr - 04:48:32 10° SW 04:52:54 56° NW 04:57:38 10° NNE daylight
23 Apr - 06:34:55 10° WNW 06:37:12 13° NNW 06:39:35 10° N daylight
23 Apr - 10:06:37 10° N 10:08:39 12° NNE 10:10:46 10° NE daylight
23 Apr - 11:48:09 10° NNW 11:53:15 39° NE 11:58:48 10° ESE daylight
23 Apr - 13:31:12 10° NW 13:36:28 43° WSW 13:42:09 10° S daylight
24 Apr - 02:33:55 10° SE 02:35:30 12° ESE 02:37:08 10° E visible
24 Apr - 04:13:18 10° SW 04:17:44 83° NW 04:22:33 10° NNE daylight
24 Apr - 05:58:41 10° WNW 06:01:42 17° NNW 06:04:52 10° N daylight
24 Apr - 11:13:10 10° NNW 11:17:56 30° NE 11:23:04 10° ESE daylight
24 Apr - 12:55:55 10° NW 13:01:25 61° WSW 13:07:22 10° SSE daylight
25 Apr - 03:38:16 10° SSW 03:42:37 66° ESE 03:47:22 10° NE daylight
25 Apr - 05:22:42 10° W 05:26:14 22° NW 05:30:01 10° NNE daylight
25 Apr - 10:38:15 10° NNW 10:42:33 23° NE 10:47:10 10° E daylight
25 Apr - 12:20:44 10° NW 12:26:18 84° WSW 12:32:23 10° SSE daylight
25 Apr - 14:05:37 10° WNW 14:08:47 15° WSW 14:12:06 10° SW daylight
